EA3CTN-13 Weather Reports


Display with metric or nautical units.
time (UTC)temp
F
wind
direction
speed
MPH
gust
MPH
rain 1hr
in
rain 24hr
in
rain mn
in
humidity
%
barometer
mb
20260901203515 83 0.0 0.0 0.00 0.00 0.00 51 1019.0
20260901202715 83 0.0 0.0 0.00 0.00 0.00 51 1019.1
20260901201915 83 0.0 0.0 0.00 0.00 0.00 51 1019.1
20260901201115 83 0.0 0.0 0.00 0.00 0.00 50 1018.9
20260901200315 83 0.0 0.0 0.00 0.00 0.00 49 1018.9
20260901195515 83 0.0 0.0 0.00 0.00 0.00 50 1018.7
20260901194715 83 0.0 0.0 0.00 0.00 0.00 50 1018.5
20260901193915 83 0.0 0.0 0.00 0.00 0.00 50 1018.4
20260901193115 83 0.0 0.0 0.00 0.00 0.00 49 1018.3
20260901192315 83 0.0 0.0 0.00 0.00 0.00 49 1018.4
20260901191515 83 0.0 0.0 0.00 0.00 0.00 49 1018.3
20260901190715 83 0.0 0.0 0.00 0.00 0.00 49 1018.3
20260901185915 84 0.0 0.0 0.00 0.00 0.00 49 1018.2
20260901185115 84 0.0 0.0 0.00 0.00 0.00 49 1018.2
20260901184315 84 0.0 0.0 0.00 0.00 0.00 49 1018.0
20260901183515 84 0.0 0.0 0.00 0.00 0.00 48 1018.1
20260901182715 84 0.0 0.0 0.00 0.00 0.00 48 1017.7
20260901181915 84 0.0 0.0 0.00 0.00 0.00 48 1017.7
20260901181115 84 0.0 0.0 0.00 0.00 0.00 48 1017.8
20260901180315 84 0.0 0.0 0.00 0.00 0.00 48 1018.0
20260901175515 85 0.0 0.0 0.00 0.00 0.00 48 1018.2
20260901174715 85 0.0 0.0 0.00 0.00 0.00 47 1018.4
20260901173915 85 0.0 0.0 0.00 0.00 0.00 47 1018.6
20260901173115 85 0.0 0.0 0.00 0.00 0.00 46 1018.4
20260901172315 86 0.0 0.0 0.00 0.00 0.00 46 1018.5
20260901171515 86 0.0 0.0 0.00 0.00 0.00 46 1018.7
20260901170715 86 0.0 0.0 0.00 0.00 0.00 45 1018.7
20260901165915 86 0.0 0.0 0.00 0.00 0.00 45 1018.9
20260901165115 86 0.0 0.0 0.00 0.00 0.00 45 1018.7
20260901164315 86 0.0 0.0 0.00 0.00 0.00 44 1018.6
20260901163515 87 0.0 0.0 0.00 0.00 0.00 44 1018.5
20260901162715 87 0.0 0.0 0.00 0.00 0.00 44 1018.9
20260901161914 88 0.0 0.0 0.00 0.00 0.00 43 1019.0
20260901161115 88 0.0 0.0 0.00 0.00 0.00 43 1018.9
20260901160315 88 0.0 0.0 0.00 0.00 0.00 43 1019.0
20260901155515 88 0.0 0.0 0.00 0.00 0.00 45 1018.9
20260901154715 86 0.0 0.0 0.00 0.00 0.00 48 1019.0
20260901153915 86 0.0 0.0 0.00 0.00 0.00 48 1019.1
20260901153114 86 0.0 0.0 0.00 0.00 0.00 47 1019.2
20260901152315 85 0.0 0.0 0.00 0.00 0.00 48 1019.1
20260901151515 86 0.0 0.0 0.00 0.00 0.00 46 1019.1
20260901150715 86 0.0 0.0 0.00 0.00 0.00 46 1019.2
20260901145914 86 0.0 0.0 0.00 0.00 0.00 47 1019.2
20260901145114 86 0.0 0.0 0.00 0.00 0.00 48 1019.6
20260901144315 86 0.0 0.0 0.00 0.00 0.00 49 1019.5
20260901143515 86 0.0 0.0 0.00 0.00 0.00 50 1019.5
20260901142714 86 0.0 0.0 0.00 0.00 0.00 49 1019.7
20260901141915 86 0.0 0.0 0.00 0.00 0.00 48 1019.6
20260901141114 86 0.0 0.0 0.00 0.00 0.00 48 1019.6
20260901140314 86 0.0 0.0 0.00 0.00 0.00 46 1019.2
20260901135514 86 0.0 0.0 0.00 0.00 0.00 45 1019.4
20260901134714 86 0.0 0.0 0.00 0.00 0.00 45 1019.6
20260901133916 86 0.0 0.0 0.00 0.00 0.00 44 1019.6
20260901133114 87 0.0 0.0 0.00 0.00 0.00 44 1019.8
20260901132314 86 0.0 0.0 0.00 0.00 0.00 44 1019.9
20260901131514 86 0.0 0.0 0.00 0.00 0.00 45 1019.9
20260901130714 86 0.0 0.0 0.00 0.00 0.00 44 1020.1
20260901125914 87 0.0 0.0 0.00 0.00 0.00 44 1020.3
20260901125114 87 0.0 0.0 0.00 0.00 0.00 43 1020.2
20260901124314 87 0.0 0.0 0.00 0.00 0.00 44 1020.2
20260901123514 86 0.0 0.0 0.00 0.00 0.00 44 1020.3
20260901122714 86 0.0 0.0 0.00 0.00 0.00 46 1020.4
20260901121914 86 0.0 0.0 0.00 0.00 0.00 48 1020.5
20260901121114 86 0.0 0.0 0.00 0.00 0.00 48 1020.6
20260901120314 86 0.0 0.0 0.00 0.00 0.00 48 1020.6
20260901115514 86 0.0 0.0 0.00 0.00 0.00 49 1020.6
20260901114714 85 0.0 0.0 0.00 0.00 0.00 49 1020.7
20260901113914 85 0.0 0.0 0.00 0.00 0.00 49 1020.8
20260901113114 86 0.0 0.0 0.00 0.00 0.00 48 1020.8
20260901112314 86 0.0 0.0 0.00 0.00 0.00 48 1020.7
20260901111515 86 0.0 0.0 0.00 0.00 0.00 47 1020.8
20260901110714 87 0.0 0.0 0.00 0.00 0.00 45 1020.8
20260901105914 87 0.0 0.0 0.00 0.00 0.00 46 1020.9
20260901105114 87 0.0 0.0 0.00 0.00 0.00 46 1020.9
20260901104314 86 0.0 0.0 0.00 0.00 0.00 45 1020.9
20260901103514 86 0.0 0.0 0.00 0.00 0.00 45 1021.0
20260901102714 86 0.0 0.0 0.00 0.00 0.00 45 1021.1
20260901101914 86 0.0 0.0 0.00 0.00 0.00 45 1021.0
20260901101114 86 0.0 0.0 0.00 0.00 0.00 44 1021.1
20260901100314 85 0.0 0.0 0.00 0.00 0.00 45 1021.1
20260901095514 85 0.0 0.0 0.00 0.00 0.00 44 1020.9
20260901094714 85 0.0 0.0 0.00 0.00 0.00 44 1020.9
20260901093914 85 0.0 0.0 0.00 0.00 0.00 44 1020.8
20260901093114 85 0.0 0.0 0.00 0.00 0.00 44 1020.7
20260901092314 85 0.0 0.0 0.00 0.00 0.00 45 1020.6
20260901091514 85 0.0 0.0 0.00 0.00 0.00 45 1020.5
20260901090714 85 0.0 0.0 0.00 0.00 0.00 47 1020.5
20260901085914 85 0.0 0.0 0.00 0.00 0.00 48 1020.4
20260901085114 85 0.0 0.0 0.00 0.00 0.00 48 1020.3
20260901084314 84 0.0 0.0 0.00 0.00 0.00 45 1020.2
20260901083514 84 0.0 0.0 0.00 0.00 0.00 47 1020.2
20260901082714 84 0.0 0.0 0.00 0.00 0.00 45 1020.0
20260901081914 84 0.0 0.0 0.00 0.00 0.00 48 1020.0
20260901081114 83 0.0 0.0 0.00 0.00 0.00 48 1020.0
20260901080314 83 0.0 0.0 0.00 0.00 0.00 49 1019.9
20260901075514 83 0.0 0.0 0.00 0.00 0.00 50 1020.0
20260901074714 82 0.0 0.0 0.00 0.00 0.00 51 1019.9
20260901073914 82 0.0 0.0 0.00 0.00 0.00 52 1020.0
20260901073114 82 0.0 0.0 0.00 0.00 0.00 53 1020.0
20260901072314 82 0.0 0.0 0.00 0.00 0.00 52 1020.1
20260901071514 82 0.0 0.0 0.00 0.00 0.00 50 1019.9
20260901070714 82 0.0 0.0 0.00 0.00 0.00 52 1019.8
20260831215514 83 0.0 0.0 0.00 0.00 0.00 56 1020.8
20260831214714 83 0.0 0.0 0.00 0.00 0.00 56 1020.8
20260831213914 83 0.0 0.0 0.00 0.00 0.00 57 1020.6
20260831213113 83 0.0 0.0 0.00 0.00 0.00 56 1020.7
20260831212314 83 0.0 0.0 0.00 0.00 0.00 56 1020.7
20260831211514 83 0.0 0.0 0.00 0.00 0.00 57 1020.6
20260831210714 84 0.0 0.0 0.00 0.00 0.00 57 1020.6
20260831205914 84 0.0 0.0 0.00 0.00 0.00 57 1020.5
20260831205114 84 0.0 0.0 0.00 0.00 0.00 57 1020.5
20260831204314 84 0.0 0.0 0.00 0.00 0.00 56 1020.5